Stations météo

réclame
Mon MeteoGroup
Lahr, Allemagne (10805): Température de l'air & dewpoint: 03.07.2020 21:00:00 - 09.07.2020 21:00:00 (CEST)Lahr, Allemagne (10805): Température de l'air 5cm & Température de l'air -5cm: 03.07.2020 21:00:00 - 09.07.2020 21:00:00 (CEST)Lahr, Allemagne (10805): Température de l'air -20cm & Température de l'air -100cm: 03.07.2020 21:00:00 - 09.07.2020 21:00:00 (CEST)Lahr, Allemagne (10805): Vitesse du vent & gusts: 03.07.2020 21:00:00 - 09.07.2020 21:00:00 (CEST)Lahr, Allemagne (10805): Direction du vent: 03.07.2020 21:00:00 - 09.07.2020 21:00:00 (CEST)Lahr, Allemagne (10805): reduced air pressure: 03.07.2020 21:00:00 - 09.07.2020 21:00:00 (CEST)Lahr, Allemagne (10805): visibility: 03.07.2020 21:00:00 - 09.07.2020 21:00:00 (CEST)Lahr, Allemagne (10805): Ensoleillement: 03.07.2020 21:00:00 - 09.07.2020 21:00:00 (CEST)Lahr, Allemagne (10805): Quantités de précipitations: 03.07.2020 21:00:00 - 09.07.2020 21:00:00 (CEST)
Date & Time tt [°C] td [°C] tt 5cm [°C] tt -5cm [°C] tt -20cm [°C] tt -100cm [°C] ff [km/h] ff [knt] fx [km/h] fx [knt] dd ppp [hPa] vv [km] sd [min] rr [mm]
09.07.2020 21:00:00 28,7 13,0 27,0 28,9 26,4 19,4 8 5 18 10 SW 1012,0 56 60 0,0
09.07.2020 20:00:00 30,3 12,8 30,1 30,3 26,3 19,4 12 6 22 12 W 1012,1 57 60 0,0
09.07.2020 19:00:00 30,7 11,7 31,4 31,4 26,1 19,4 16 9 27 14 W 1012,4 10 60 0,0
09.07.2020 18:00:00 31,3 11,4 33,2 32,0 25,7 19,3 15 8 28 15 WNW 1012,8 48 60 0,0
09.07.2020 17:00:00 31,1 11,0 33,5 32,3 25,1 19,3 21 11 33 18 WNW 1013,3 56 57 0,0
09.07.2020 16:00:00 30,9 11,7 34,6 32,5 24,4 19,3 16 9 32 18 WSW 1013,6 10 60 0,0
09.07.2020 15:00:00 30,5 12,2 34,0 32,0 23,7 19,3 18 10 37 20 W 1014,2 58 60 0,0
09.07.2020 14:00:00 29,2 12,1 32,7 30,9 23,0 19,3 13 7 29 16 WSW 1014,8 52 59 0,0
09.07.2020 13:00:00 29,6 12,7 32,7 29,6 22,3 19,3 16 9 29 16 SW 1015,4 10 60 0,0
09.07.2020 12:00:00 27,7 12,8 31,0 27,6 21,7 19,3 12 7 22 12 S 1015,6 65 60 0,0
09.07.2020 11:00:00 25,0 13,6 27,5 25,1 21,3 19,3 10 5 20 11 SSW 1016,5 54 60 0,0
09.07.2020 10:00:00 22,1 12,7 23,8 22,4 21,2 19,3 12 7 19 10 SSW 1017,1 53 57 0,0
09.07.2020 09:00:00 19,8 12,9 20,6 20,1 21,2 19,3 10 5 18 10 SSW 1017,3 58 8 0,0
09.07.2020 08:00:00 18,5 13,0 18,7 19,3 21,4 19,3 5 3 12 7 SSE 1017,4 10 0 0,0
09.07.2020 07:00:00 16,2 12,8 16,0 18,7 21,6 19,3 5 3 10 5 SW 1017,5 63 0 0,0
09.07.2020 06:00:00 14,6 12,4 12,9 18,6 21,9 19,3 4 2 6 3 S 1017,5 47 0 0,0
09.07.2020 05:00:00 14,7 12,7 12,2 18,8 22,2 19,3 3 1 4 2 SE 1017,4 46 0 0,0
09.07.2020 04:00:00 14,8 12,7 11,6 19,2 22,6 19,3 3 2 6 3 E 1017,4 47 0 0,0
09.07.2020 03:00:00 15,7 12,9 13,2 19,8 22,9 19,3 4 2 6 3 WNW 1017,5 46 0 0,0
09.07.2020 02:00:00 16,0 12,9 13,1 20,5 23,3 19,3 3 2 16 9 N 1017,6 62 0 0,0
09.07.2020 01:00:00 17,7 12,7 14,6 21,3 23,6 19,3 4 2 6 3 SSW 1017,3 60 0 0,0
09.07.2020 00:00:00 18,5 13,0 14,7 22,2 23,9 19,3 5 3 9 5 S 1017,6 62 0 0,0
08.07.2020 23:00:00 19,9 13,1 15,7 23,3 24,2 19,3 3 2 8 5 SSE 1017,5 68 0 0,0
08.07.2020 22:00:00 23,4 12,5 20,2 24,5 24,4 19,3 6 4 13 7 SW 1016,7 61 4 0,0
08.07.2020 21:00:00 25,1 12,3 24,8 25,4 24,5 19,3 10 5 14 8 WSW 1016,2 61 12 0,0
08.07.2020 20:00:00 25,7 12,0 25,2 26,2 24,5 19,3 8 4 15 8 SW 1016,1 10 0 0,0
08.07.2020 19:00:00 26,2 11,0 26,4 27,1 24,4 19,3 8 4 29 15 WNW 1016,0 57 3 0,0
08.07.2020 18:00:00 26,7 11,4 27,2 28,0 24,2 19,3 13 7 34 18 W 1016,1 56 5 0,0
08.07.2020 17:00:00 27,2 10,9 29,0 28,6 23,8 19,3 14 8 34 18 SW 1016,1 75 26 0,0
08.07.2020 16:00:00 26,7 10,4 29,5 28,8 23,4 19,3 13 7 29 16 WSW 1016,2 61 25 0,0
08.07.2020 15:00:00 26,8 10,4 31,3 28,1 23,0 19,3 15 8 28 15 S 1016,4 10 21 0,0
08.07.2020 14:00:00 24,6 9,1 26,4 28,4 22,3 19,3 14 8 33 18 WSW 1016,8 59 29 0,0
08.07.2020 13:00:00 25,0 8,5 29,5 28,3 21,7 19,3 12 7 27 15 W 1017,0 65 60 0,0
08.07.2020 12:00:00 23,7 7,8 27,0 26,4 21,1 19,3 12 7 27 14 W 1017,3 58 60 0,0
08.07.2020 11:00:00 22,4 8,7 25,1 24,1 20,8 19,3 16 9 24 13 SSW 1017,6 10 60 0,0
08.07.2020 10:00:00 20,8 9,5 22,7 21,9 20,6 19,3 15 8 22 12 SSW 1017,9 10 60 0,0
08.07.2020 09:00:00 19,1 9,5 20,3 19,9 20,6 19,3 14 8 21 12 SSW 1018,0 38 60 0,0
08.07.2020 08:00:00 16,3 8,6 16,6 17,9 20,8 19,3 10 5 15 8 S 1018,2 59 60 0,0
08.07.2020 07:00:00 13,8 8,0 13,3 16,8 21,1 19,3 8 5 16 8 SSW 1018,5 75 46 0,0
08.07.2020 06:00:00 10,7 8,0 8,0 16,8 21,5 19,3 5 3 12 6 SSW 1018,5 56 0 0,0
08.07.2020 05:00:00 11,0 8,0 8,1 17,2 21,9 19,3 5 3 9 5 SSW 1018,4 50 0 0,0
08.07.2020 04:00:00 11,8 8,0 7,9 17,8 22,3 19,3 4 2 9 5 S 1018,6 68 0 0,0
08.07.2020 03:00:00 11,7 8,0 8,2 18,5 22,8 19,3 3 1 6 4 N 1018,9 55 0 0,0
08.07.2020 02:00:00 12,3 9,3 9,4 19,3 23,2 19,3 3 2 9 5 W 1019,1 49 0 0,0
08.07.2020 01:00:00 12,9 9,5 9,8 20,2 23,7 19,3 3 2 4 2 WNW 1019,0 55 0 0,0
08.07.2020 00:00:00 13,0 9,9 10,6 21,2 24,1 19,3 0 0 4 2 N 1019,0 59 0 0,0
07.07.2020 23:00:00 14,9 10,1 11,7 22,5 24,5 19,3 3 1 8 5 ESE 1018,9 60 0 0,0
07.07.2020 22:00:00 17,0 10,4 13,7 24,0 24,8 19,3 4 2 9 5 NNE 1018,4 61 4 0,0
07.07.2020 21:00:00 21,1 7,6 18,4 25,9 24,9 19,3 4 2 10 6 NW 1017,9 67 35 0,0
07.07.2020 20:00:00 22,5 7,1 23,7 27,5 24,8 19,3 7 4 14 8 NE 1017,6 52 60 0,0
07.07.2020 19:00:00 23,0 6,3 25,8 28,5 24,6 19,3 8 4 16 8 E 1017,7 10 60 0,0
07.07.2020 18:00:00 23,5 5,8 26,8 29,0 24,3 19,3 8 4 21 11 E 1018,1 10 60 0,0
07.07.2020 17:00:00 23,7 6,5 27,1 29,2 23,8 19,2 9 5 26 14 N 1018,6 43 60 0,0
07.07.2020 16:00:00 23,0 5,2 27,7 29,6 23,1 19,2 10 5 20 11 WNW 1019,1 75 60 0,0
07.07.2020 15:00:00 22,1 4,4 27,1 29,4 22,4 19,2 9 5 22 12 WNW 1019,9 58 60 0,0
07.07.2020 14:00:00 22,1 5,6 26,3 28,8 21,7 19,2 9 5 21 12 - 1020,1 10 60 0,0
07.07.2020 13:00:00 20,9 5,0 25,9 27,4 21,1 19,2 9 5 22 12 WNW 1020,3 48 60 0,0
07.07.2020 12:00:00 20,6 7,3 24,5 25,9 20,5 19,2 8 4 23 12 - 1020,6 10 60 0,0
07.07.2020 11:00:00 18,8 7,9 22,6 23,8 20,1 19,2 8 5 15 8 N 1021,2 65 60 0,0
07.07.2020 10:00:00 17,1 8,2 19,6 21,4 19,9 19,2 8 4 12 7 N 1021,4 54 60 0,0
07.07.2020 09:00:00 15,6 8,6 16,6 19,1 19,9 19,2 5 3 8 4 NNE 1021,7 57 60 0,0
07.07.2020 08:00:00 13,3 8,3 13,5 16,9 20,1 19,2 0 0 6 3 N 1022,3 10 60 0,0
07.07.2020 07:00:00 10,7 7,9 9,5 15,6 20,4 19,2 4 2 5 3 NE 1022,7 47 46 0,0
07.07.2020 06:00:00 7,9 6,9 5,6 15,4 20,8 19,2 3 2 5 3 NNE 1022,8 35 0 0,0
07.07.2020 05:00:00 9,1 7,4 5,7 16,0 21,3 19,2 3 1 6 3 ESE 1022,7 40 0 0,0
07.07.2020 04:00:00 9,8 7,9 6,1 16,7 21,7 19,2 2 1 4 2 NW 1022,7 44 0 0,0
07.07.2020 03:00:00 10,2 7,9 6,8 17,4 22,1 19,2 3 2 6 3 NW 1022,5 47 0 0,0
07.07.2020 02:00:00 11,1 8,3 7,5 18,2 22,5 19,2 3 2 8 4 NW 1022,5 45 0 0,0
07.07.2020 01:00:00 12,5 8,6 8,8 19,1 23,0 19,2 4 2 6 3 SW 1022,3 41 0 0,0
07.07.2020 00:00:00 13,2 9,1 10,1 20,2 23,3 19,2 3 2 6 3 WSW 1022,3 44 0 0,0
06.07.2020 23:00:00 16,2 8,9 14,7 21,4 23,6 19,1 5 3 5 3 SSE 1021,9 45 0 0,0
06.07.2020 22:00:00 16,5 7,4 13,9 22,0 23,9 19,1 4 2 14 7 N 1021,4 43 0 0,0
06.07.2020 21:00:00 18,3 6,2 16,9 23,3 24,1 19,1 10 5 24 13 NW 1020,8 60 35 0,0
06.07.2020 20:00:00 19,8 5,7 20,0 24,6 24,2 19,1 16 9 27 15 NNW 1020,5 44 33 0,0
06.07.2020 19:00:00 20,2 5,5 20,4 26,0 24,1 19,1 21 11 34 18 NNW 1020,1 48 57 0,0
06.07.2020 18:00:00 21,7 5,3 24,0 26,5 23,9 19,1 14 8 35 19 NW 1019,6 52 48 0,0
06.07.2020 17:00:00 20,9 5,8 23,1 26,2 23,7 19,1 22 12 34 19 NNW 1019,3 45 26 0,0
06.07.2020 16:00:00 21,3 5,8 23,7 26,8 23,4 19,1 22 12 38 21 N 1019,0 68 51 0,0
06.07.2020 15:00:00 21,2 6,9 23,6 26,0 23,2 19,1 24 13 35 19 NNW 1018,8 63 19 0,0
06.07.2020 14:00:00 19,8 7,2 21,7 26,3 22,8 19,1 16 9 29 15 NNW 1018,5 51 17 0,0
06.07.2020 13:00:00 20,1 7,7 25,1 27,6 22,2 19,1 13 7 23 12 N 1018,1 53 52 0,0
06.07.2020 12:00:00 19,5 8,5 24,2 26,2 21,9 19,1 5 3 21 11 NNW 1018,2 68 59 0,0
06.07.2020 11:00:00 18,6 9,5 21,8 22,5 21,9 19,1 10 5 22 12 E 1018,1 48 34 0,0
06.07.2020 10:00:00 16,6 9,3 17,4 20,0 22,0 19,0 8 4 29 16 N 1018,3 10 19 0,0
06.07.2020 09:00:00 15,9 9,8 15,6 19,2 22,3 19,0 16 9 26 14 NE 1017,9 44 1 0,0
06.07.2020 08:00:00 16,3 12,5 15,8 19,4 22,6 19,0 14 8 31 17 NNE 1017,3 50 0 0,0
06.07.2020 07:00:00 16,8 11,0 14,9 19,9 22,9 19,0 19 11 35 19 NNW 1016,7 75 0 0,1
06.07.2020 06:00:00 17,7 14,4 16,1 21,1 23,2 19,0 17 9 29 16 NNW 1015,8 60 0 0,3
06.07.2020 05:00:00 18,8 17,5 18,2 21,8 23,4 19,0 4 2 24 13 SW 1015,0 9 0 0,7
06.07.2020 04:00:00 21,6 15,5 21,1 22,2 23,6 19,0 14 8 26 14 WSW 1014,2 75 0 0,0
06.07.2020 03:00:00 22,1 15,5 21,6 22,3 23,9 19,0 17 9 27 15 S 1014,5 70 0 0,0
06.07.2020 02:00:00 22,3 16,1 21,4 22,5 24,2 19,0 13 7 25 14 SSW 1014,7 75 0 0,0
06.07.2020 01:00:00 22,4 15,4 20,8 23,1 24,4 19,0 11 6 17 9 SSW 1014,9 75 0 0,0
06.07.2020 00:00:00 23,6 15,9 22,0 23,8 24,7 19,0 10 5 17 9 SSW 1015,0 69 0 0,0
05.07.2020 23:00:00 23,3 15,7 21,5 24,6 25,0 19,0 9 5 23 12 SW 1015,0 75 0 0,0
05.07.2020 22:00:00 25,2 16,5 24,1 25,7 25,1 19,0 16 8 24 13 WSW 1014,7 73 5 0,0
05.07.2020 21:00:00 26,8 16,1 26,1 27,0 25,1 19,0 16 9 32 17 SW 1014,2 74 57 0,0
05.07.2020 20:00:00 28,0 15,7 28,2 28,1 25,0 19,0 20 11 33 18 SSW 1014,1 67 60 0,0
05.07.2020 19:00:00 28,5 15,5 29,5 29,0 24,8 18,9 19 11 31 17 SW 1014,4 47 60 0,0
05.07.2020 18:00:00 28,8 15,7 30,8 29,4 24,4 18,9 16 9 33 18 SW 1014,9 55 59 0,0
05.07.2020 17:00:00 28,8 15,7 31,9 28,9 24,0 18,9 18 10 39 21 SSW 1015,4 10 48 0,0
05.07.2020 16:00:00 28,2 16,3 31,4 28,6 23,7 18,9 21 12 34 19 SSW 1015,7 75 36 0,0
05.07.2020 15:00:00 26,5 16,2 28,2 27,5 23,3 18,9 17 9 32 17 WSW 1016,5 75 11 0,0
05.07.2020 14:00:00 26,0 16,2 27,7 27,0 23,0 18,9 22 12 35 19 SSW 1016,9 75 5 0,0
05.07.2020 13:00:00 25,7 16,1 28,0 26,9 22,6 18,9 22 12 38 21 SW 1017,3 47 33 0,0
05.07.2020 12:00:00 25,0 16,4 27,7 25,4 22,3 18,9 24 13 36 20 S 1017,6 62 31 0,0
05.07.2020 11:00:00 22,9 15,6 24,3 23,6 22,2 18,9 23 13 35 19 SSW 1018,1 59 17 0,0
05.07.2020 10:00:00 21,7 14,6 22,7 22,3 22,2 18,9 16 9 27 15 SW 1018,6 54 1 0,0
05.07.2020 09:00:00 21,2 13,8 21,7 21,6 22,3 18,9 13 7 18 10 WSW 1018,6 68 0 0,0
05.07.2020 08:00:00 20,7 13,2 20,6 21,2 22,4 18,9 13 7 22 12 SW 1018,3 54 0 0,0
05.07.2020 07:00:00 20,8 12,3 20,5 21,0 22,6 18,9 16 8 27 14 SSW 1018,3 69 0 0,0
05.07.2020 06:00:00 20,7 11,8 20,1 21,1 22,8 18,9 16 9 26 14 SSW 1018,2 66 0 0,0
05.07.2020 05:00:00 20,8 11,6 20,3 21,4 23,0 18,9 15 8 25 13 SSW 1018,2 59 0 0,0
05.07.2020 04:00:00 21,1 11,7 20,6 21,6 23,2 18,9 16 9 31 17 SSW 1018,2 73 0 0,0
05.07.2020 03:00:00 21,5 11,8 20,7 22,0 23,5 18,9 16 9 26 14 SSW 1018,4 63 0 0,0
05.07.2020 02:00:00 22,1 11,8 21,5 22,5 23,7 18,9 15 8 25 14 SSW 1018,8 59 0 0,0
05.07.2020 01:00:00 22,4 11,9 21,9 22,9 24,0 18,9 15 8 21 12 S 1019,0 63 0 0,0
05.07.2020 00:00:00 22,6 12,2 22,0 23,4 24,2 18,9 13 7 19 10 S 1018,8 61 0 0,0
04.07.2020 23:00:00 22,8 12,8 22,1 24,0 24,5 18,8 12 7 19 11 SSW 1018,7 63 0 0,0
04.07.2020 22:00:00 23,4 12,6 22,2 24,7 24,7 18,8 9 5 18 10 SSW 1018,2 59 0 0,0
04.07.2020 21:00:00 24,4 12,2 23,8 25,7 24,8 18,8 10 6 21 11 SW 1017,7 75 0 0,0
04.07.2020 20:00:00 25,0 11,9 24,6 26,8 24,8 18,8 14 8 21 12 WSW 1017,9 58 9 0,0
04.07.2020 19:00:00 26,0 10,9 26,0 28,2 24,6 18,8 13 7 26 14 SW 1017,7 71 42 0,0
04.07.2020 18:00:00 27,0 10,8 29,4 29,3 24,3 18,8 15 8 30 16 SW 1017,8 61 60 0,0
04.07.2020 17:00:00 26,6 10,3 30,0 29,3 23,8 18,8 15 8 35 19 SW 1017,9 55 51 0,0
04.07.2020 16:00:00 26,7 10,5 29,8 29,4 23,3 18,8 19 10 32 18 WSW 1018,5 65 59 0,0
04.07.2020 15:00:00 25,5 9,9 29,4 29,2 22,7 18,8 18 10 31 17 SW 1018,7 75 60 0,0
04.07.2020 14:00:00 25,2 10,9 28,2 28,6 22,1 18,8 19 10 28 15 WSW 1019,2 69 53 0,0
04.07.2020 13:00:00 23,0 10,2 25,0 28,1 21,5 18,8 10 5 25 13 SW 1020,1 75 58 0,0
04.07.2020 12:00:00 22,8 11,0 26,8 26,2 20,9 18,8 13 7 22 12 SW 1020,5 46 60 0,0
04.07.2020 11:00:00 21,4 9,9 24,5 23,8 20,6 18,8 9 5 19 10 SW 1020,7 75 53 0,0
04.07.2020 10:00:00 20,4 11,8 22,8 21,8 20,4 18,8 10 6 18 10 SSW 1021,0 75 60 0,0
04.07.2020 09:00:00 18,1 11,9 19,4 19,6 20,4 18,8 10 5 14 8 SW 1021,3 43 47 0,0
04.07.2020 08:00:00 15,8 11,5 15,6 17,9 20,6 18,8 3 2 10 5 S 1021,2 69 6 0,0
04.07.2020 07:00:00 14,1 11,4 14,1 17,1 20,9 18,8 6 4 8 5 WSW 1021,0 61 26 0,0
04.07.2020 06:00:00 12,0 10,0 9,5 16,9 21,3 18,8 6 3 9 5 S 1021,0 55 0 0,0
04.07.2020 05:00:00 11,7 9,5 10,1 17,3 21,7 18,8 4 2 6 3 W 1020,8 60 0 0,0
04.07.2020 04:00:00 12,6 10,4 9,8 17,8 22,1 18,8 3 1 5 3 WNW 1020,6 55 0 0,0
04.07.2020 03:00:00 13,5 10,9 10,4 18,5 22,6 18,8 4 2 8 4 SSE 1020,8 49 0 0,0
04.07.2020 02:00:00 13,4 11,1 10,6 19,4 23,0 18,8 3 1 10 6 NNW 1020,7 51 0 0,0
04.07.2020 01:00:00 15,1 11,3 11,5 20,3 23,4 18,8 3 2 7 4 WSW 1020,6 51 0 0,0
04.07.2020 00:00:00 16,1 11,7 13,2 21,4 23,8 18,8 5 3 8 4 W 1020,3 58 0 0,0
03.07.2020 23:00:00 17,6 11,8 14,6 22,6 24,1 18,8 3 1 10 6 WSW 1019,9 55 0 0,0
03.07.2020 22:00:00 19,4 12,9 18,0 23,8 24,3 18,8 4 2 7 4 SSE 1019,3 55 4 0,0
03.07.2020 21:00:00 21,0 11,1 18,9 25,2 24,4 18,8 2 1 10 5 E 1018,6 75 3 0,0

tt = Température de l'air
td = dewpoint
tt 5cm = Température de l'air 5cm
tt -5cm = Température de l'air -5cm
tt -20cm = Température de l'air -20cm
tt -100cm = Température de l'air -100cm
ff = Vitesse du vent
fx = gusts
dd = Direction du vent
ppp = reduced air pressure
vv = visibility
sd = Ensoleillement
rr = Quantités de précipitations

stations d'obs. à proximité